Starlink 3785

operational
NORAD ID: 52375 Int'l Des: 2022-045 Owner: SPXS Country: US Constellation: starlink
LEOCIRCULAR

Über Starlink 3785

Beschreibung wird geladen...

Live-Position

3D-Globus wird geladen...

Nächste Überflüge

Höhenverlauf

Altitude vs Time

uPlot chart will show altitude changes over time

Zweizeiliger Elementsatz

1 52375U 22045AW 25354.93040224 -.00000208 00000-0 50365-5 0 9993
2 52375 53.2158 182.6853 0001386 89.9377 270.1774 15.08838249204037
Epoch: 20. Dez. 2025 • Age: 9 hours

Aktueller Status

Höhe 541.0 km
Geschwindigkeit 7.59 km/s
Subsatellitenpunkt -2.44°S, 166.46°E
Startdatum 29. Apr. 2022
Alter 3.6 years
Typ internet

Technische Details

Klassifizierung Payload
Masse 297.00 kg
Trockenmasse 275.00 kg
Gesamtmasse 297.00 kg
Länge 0.20 m
Durchmesser 2.80 m
Spannweite 9.00 m
Form Box + pan
Hersteller SPXS
Bus-Typ Starlink
Phasenstatus In Orbit
Besitzer/Staat SPXS/US

Große Konstellationen

Loading constellations...